PDT,Max TemperatureF,Mean TemperatureF,Min TemperatureF,Max Dew PointF,MeanDew PointF,Min DewpointF,Max Humidity, Mean Humidity, Min Humidity, Max Sea Level PressureIn, Mean Sea Level PressureIn, Min Sea Level PressureIn, Max VisibilityMiles, Mean VisibilityMiles, Min VisibilityMiles, Max Wind SpeedMPH, Mean Wind SpeedMPH, Max Gust SpeedMPH,PrecipitationIn, CloudCover, Events, WindDirDegrees
2012-9-1,66,58,50,50,47,45,100,69,49,30.11,30.06,29.97,10,10,9,14,6,18,0.00,0,,182
2012-9-2,66,58,51,50,49,46,94,74,52,30.17,30.14,30.10,10,10,10,13,7,18,0.00,0,,187
2012-9-3,64,56,48,55,52,48,100,85,63,30.19,30.15,30.11,10,10,3,8,1,,0.00,2,,332
2012-9-4,64,57,50,55,54,50,100,86,68,30.22,30.16,30.10,10,10,9,12,2,,0.00,2,,342
2012-9-5,64,58,51,57,55,50,100,86,73,30.10,30.02,29.95,10,10,10,8,2,,0.00,0,,336
2012-9-6,68,62,55,57,53,46,94,77,52,30.06,30.03,29.97,10,10,10,14,7,20,0.00,0,,347
2012-9-7,68,60,53,57,52,46,94,76,52,30.16,30.09,30.02,10,10,10,9,2,,0.00,0,,342
2012-9-8,73,62,51,57,52,46,88,72,47,30.04,29.94,29.84,10,10,10,21,3,24,0.00,0,,218
2012-9-9,64,60,57,55,53,50,94,78,63,29.97,29.93,29.88,10,10,2,12,8,16,0.02,5,Rain,186
2012-9-10,64,55,46,55,46,41,100,72,45,30.20,30.07,29.90,10,10,2,13,5,17,0.02,2,Rain,206
2012-9-11,57,50,44,48,45,41,100,80,63,30.34,30.29,30.20,10,10,10,8,2,,0.00,1,,340
2012-9-12,59,52,44,54,48,41,100,85,72,30.39,30.32,30.25,10,10,10,9,1,,0.00,0,,339
2012-9-13,64,56,48,55,50,45,100,83,52,30.25,30.16,30.04,10,10,2,8,2,,0.00,0,,339
2012-9-14,64,56,48,55,50,45,100,81,59,30.10,30.06,30.01,10,10,4,9,1,,0.00,0,,335
2012-9-15,62,56,50,54,51,48,94,83,68,30.17,30.13,30.04,10,10,10,8,1,,0.00,0,,344
2012-9-16,64,57,50,55,52,48,100,83,59,30.23,30.17,30.11,10,10,10,8,2,,0.00,0,,338
2012-9-17,68,59,50,55,50,46,100,76,52,30.14,30.07,30.00,10,10,7,8,1,,0.00,0,,340
2012-9-18,66,58,50,55,51,46,88,76,56,30.06,30.02,30.00,10,10,10,7,2,,0.00,0,,337
2012-9-19,64,57,50,54,51,48,100,84,59,30.15,30.10,30.05,10,10,2,7,1,,0.00,0,,180
2012-9-20,64,55,46,55,51,46,100,86,68,30.09,30.04,29.98,10,9,1,16,4,24,0.00,1,,181
2012-9-21,60,56,53,54,52,50,94,84,72,30.12,30.09,30.05,10,10,10,16,10,25,0.00,6,,179
2012-9-22,64,56,48,54,50,46,94,79,55,30.14,30.12,30.11,10,10,6,8,3,,0.00,4,,167
2012-9-23,62,55,48,54,50,46,94,84,72,30.16,30.12,30.10,10,10,2,6,1,,0.00,4,,209
2012-9-24,62,54,46,52,49,45,100,83,59,30.14,30.11,30.08,10,10,10,6,1,,0.00,1,,158
2012-9-25,59,54,48,54,50,48,100,86,72,30.14,30.11,30.09,10,10,10,9,3,,0.00,3,,308
2012-9-26,59,52,44,54,49,45,100,90,67,30.12,30.08,30.04,10,9,0,5,0,,0.00,1,Fog,352
2012-9-27,62,52,42,55,50,43,100,90,72,30.07,30.02,29.93,10,9,0,7,1,,0.00,1,Fog-Rain,351
2012-9-28,68,60,51,54,51,48,94,78,56,30.01,29.95,29.91,10,10,10,15,3,22,0.00,3,,188
2012-9-29,59,54,48,55,50,46,100,86,63,30.29,30.17,30.01,10,10,7,6,0,,0.00,3,,342
2012-9-30,60,52,44,50,47,45,100,86,55,30.41,30.36,30.29,10,10,5,7,1,,0.00,0,,332